Volver al catálogo

STARLINK-3057

ActivoComunicacionesVLEO
NORAD 49139·PAYLOAD·🇺🇸 United States

Lanzado Sep 14, 2021 desde Vandenberg Space Force Base

Loading…

Próximos Pases (próximas 24 horas)

TLE

ActualizadoSource: CelesTrak SupGP

Época: Sep 14, 2026, 21:39 UTC

1 49139C 21082K   26257.90256944  .00356730  00000+0  54572-2 0  2575
2 49139  69.9998 125.0960 0003221 277.1291 115.6752 15.54016738    16

Sigue STARLINK-3057 en tiempo real con AllMySat

Download on the App Store